{"data":{"norad_id":47638,"intl_designator":"2021-012U","name":"STARLINK-2015","alt_names":[],"object_type":"PAYLOAD","status":"ACTIVE","operator":null,"country":"US","launch_date":"2021-02-16","launch_site_code":"AFETR","launch_vehicle":null,"mission":null,"orbit_class":"UNKNOWN","rcs_meters":null,"size_class":null,"mass_kg":null,"dimensions":null,"purposes":["comms"],"wikipedia_slug":null,"has_3d_model":false,"image_url":null,"decayed_at":null,"tle_current":{"epoch":"2026-09-19T04:03:38.725344Z","epoch_age_seconds":140773,"freshness":"FRESH","line1":"1 47638U 21012U   26262.16919821  .00050379  00000+0  10703-2 0  9995","line2":"2 47638  53.1532 145.6402 0001273 147.3896 212.7190 15.44541676311091","mean_motion":15.44541676,"eccentricity":0.0001273,"inclination_deg":53.1532,"raan_deg":145.6402,"arg_perigee_deg":147.3896,"mean_anomaly_deg":212.719,"bstar":0.0010703,"rev_number":31109,"period_min":93.231540616584,"perigee_km":431.85807676193,"apogee_km":433.59212225247,"semimajor_km":6810.8620995072,"source":"CELESTRAK","updated_at":"2026-09-20T09:00:38.598181Z"}}}